Year,Month,Day,Hour,Minute,Value (Times are PST for temperature in C)
2007,01,19,00,00,4.20
2007,01,19,00,01,4.10
2007,01,19,00,02,4.10
2007,01,19,00,03,4.10
2007,01,19,00,04,4.10
2007,01,19,00,05,4.10
2007,01,19,00,06,4.10
2007,01,19,00,07,4.10
2007,01,19,00,08,4.10
2007,01,19,00,09,4.00
2007,01,19,00,10,4.00
2007,01,19,00,11,4.00
2007,01,19,00,12,4.00
2007,01,19,00,13,4.00
2007,01,19,00,14,4.00
2007,01,19,00,15,3.90
2007,01,19,00,16,3.90
2007,01,19,00,17,3.90
2007,01,19,00,18,3.90
2007,01,19,00,19,3.90
2007,01,19,00,20,3.90
2007,01,19,00,21,3.90
2007,01,19,00,22,3.90
2007,01,19,00,23,3.90
2007,01,19,00,24,3.90
2007,01,19,00,25,3.90
2007,01,19,00,26,3.90
2007,01,19,00,27,3.90
2007,01,19,00,28,3.90
2007,01,19,00,29,3.90
2007,01,19,00,30,3.90
2007,01,19,00,31,3.90
2007,01,19,00,32,3.90
2007,01,19,00,33,3.80
2007,01,19,00,34,3.80
2007,01,19,00,35,3.80
2007,01,19,00,36,3.80
2007,01,19,00,37,3.80
2007,01,19,00,38,3.80
2007,01,19,00,39,3.80
2007,01,19,00,40,3.80
2007,01,19,00,41,3.80
2007,01,19,00,42,3.80
2007,01,19,00,43,3.80
2007,01,19,00,44,3.80
2007,01,19,00,45,3.80
2007,01,19,00,46,3.80
2007,01,19,00,47,3.80
2007,01,19,00,48,3.80
2007,01,19,00,49,3.80
2007,01,19,00,50,3.80
2007,01,19,00,51,3.80
2007,01,19,00,52,3.80
2007,01,19,00,53,3.80
2007,01,19,00,54,3.80
2007,01,19,00,55,3.90
2007,01,19,00,56,3.90
2007,01,19,00,57,3.90
2007,01,19,00,58,3.90
2007,01,19,00,59,4.00
2007,01,19,01,00,4.10
2007,01,19,01,01,4.20
2007,01,19,01,02,4.20
2007,01,19,01,03,4.10
2007,01,19,01,04,4.10
2007,01,19,01,05,4.10
2007,01,19,01,06,4.10
2007,01,19,01,07,4.10
2007,01,19,01,08,4.10
2007,01,19,01,09,4.10
2007,01,19,01,10,4.10
2007,01,19,01,11,4.10
2007,01,19,01,12,4.10
2007,01,19,01,13,4.10
2007,01,19,01,14,4.10
2007,01,19,01,15,4.10
2007,01,19,01,16,4.10
2007,01,19,01,17,4.10
2007,01,19,01,18,4.10
2007,01,19,01,19,4.10
2007,01,19,01,20,4.10
2007,01,19,01,21,4.10
2007,01,19,01,22,4.10
2007,01,19,01,23,4.10
2007,01,19,01,24,4.10
2007,01,19,01,25,4.10
2007,01,19,01,26,4.10
2007,01,19,01,27,4.20
2007,01,19,01,28,4.20
2007,01,19,01,29,4.20
2007,01,19,01,30,4.20
2007,01,19,01,31,4.20
2007,01,19,01,32,4.20
2007,01,19,01,33,4.20
2007,01,19,01,34,4.20
2007,01,19,01,35,4.20
2007,01,19,01,36,4.10
2007,01,19,01,37,4.10
2007,01,19,01,38,4.10
2007,01,19,01,39,4.00
2007,01,19,01,40,4.00
2007,01,19,01,41,4.00
2007,01,19,01,42,4.00
2007,01,19,01,43,4.00
2007,01,19,01,44,4.00
2007,01,19,01,45,4.00
2007,01,19,01,46,4.00
2007,01,19,01,47,4.00
2007,01,19,01,48,4.00
2007,01,19,01,49,4.10
2007,01,19,01,50,4.10
2007,01,19,01,51,4.10
2007,01,19,01,52,4.10
2007,01,19,01,53,4.10
2007,01,19,01,54,4.10
2007,01,19,01,55,4.10
2007,01,19,01,56,4.10
2007,01,19,01,57,4.10
2007,01,19,01,58,4.10
2007,01,19,01,59,4.10
2007,01,19,02,00,4.10
2007,01,19,02,01,4.10
2007,01,19,02,02,4.10
2007,01,19,02,03,4.10
2007,01,19,02,04,4.20
2007,01,19,02,05,4.20
2007,01,19,02,06,4.20
2007,01,19,02,07,4.20
2007,01,19,02,08,4.20
2007,01,19,02,09,4.20
2007,01,19,02,10,4.20
2007,01,19,02,11,4.20
2007,01,19,02,12,4.20
2007,01,19,02,13,4.20
2007,01,19,02,14,4.20
2007,01,19,02,15,4.20
2007,01,19,02,16,4.20
2007,01,19,02,17,4.20
2007,01,19,02,18,4.20
2007,01,19,02,19,4.20
2007,01,19,02,20,4.20
2007,01,19,02,21,4.20
2007,01,19,02,22,4.20
2007,01,19,02,23,4.20
2007,01,19,02,24,4.20
2007,01,19,02,25,4.20
2007,01,19,02,26,4.20
2007,01,19,02,27,4.20
2007,01,19,02,28,4.20
2007,01,19,02,29,4.20
2007,01,19,02,30,4.20
2007,01,19,02,31,4.20
2007,01,19,02,32,4.20
2007,01,19,02,33,4.20
2007,01,19,02,34,4.20
2007,01,19,02,35,4.20
2007,01,19,02,36,4.20
2007,01,19,02,37,4.20
2007,01,19,02,38,4.20
2007,01,19,02,39,4.20
2007,01,19,02,40,4.20
2007,01,19,02,41,4.20
2007,01,19,02,42,4.20
2007,01,19,02,43,4.20
2007,01,19,02,44,4.20
2007,01,19,02,45,4.20
2007,01,19,02,46,4.20
2007,01,19,02,47,4.20
2007,01,19,02,48,4.20
2007,01,19,02,49,4.20
2007,01,19,02,50,4.20
2007,01,19,02,51,4.20
2007,01,19,02,52,4.20
2007,01,19,02,53,4.20
2007,01,19,02,54,4.20
2007,01,19,02,55,4.20
2007,01,19,02,56,4.10
2007,01,19,02,57,4.10
2007,01,19,02,58,4.10
2007,01,19,02,59,4.10
2007,01,19,03,00,4.10
2007,01,19,03,01,4.10
2007,01,19,03,02,4.00
2007,01,19,03,03,4.00
2007,01,19,03,04,4.00
2007,01,19,03,05,4.00
2007,01,19,03,06,4.00
2007,01,19,03,07,4.00
2007,01,19,03,08,4.00
2007,01,19,03,09,4.00
2007,01,19,03,10,4.00
2007,01,19,03,11,4.00
2007,01,19,03,12,4.00
2007,01,19,03,13,4.00
2007,01,19,03,14,4.00
2007,01,19,03,15,4.00
2007,01,19,03,16,4.00
2007,01,19,03,17,4.00
2007,01,19,03,18,4.00
2007,01,19,03,19,4.10
2007,01,19,03,20,4.00
2007,01,19,03,21,4.10
2007,01,19,03,22,4.10
2007,01,19,03,23,4.10
2007,01,19,03,24,4.10
2007,01,19,03,25,4.10
2007,01,19,03,26,4.10
2007,01,19,03,27,4.10
2007,01,19,03,28,4.10
2007,01,19,03,29,4.20
2007,01,19,03,30,4.20
2007,01,19,03,31,4.20
2007,01,19,03,32,4.20
2007,01,19,03,33,4.20
2007,01,19,03,34,4.20
2007,01,19,03,35,4.20
2007,01,19,03,36,4.20
2007,01,19,03,37,4.20
2007,01,19,03,38,4.10
2007,01,19,03,39,4.10
2007,01,19,03,40,4.10
2007,01,19,03,41,4.10
2007,01,19,03,42,4.10
2007,01,19,03,43,4.10
2007,01,19,03,44,4.10
2007,01,19,03,45,4.10
2007,01,19,03,46,4.10
2007,01,19,03,47,4.10
2007,01,19,03,48,4.10
2007,01,19,03,49,4.10
2007,01,19,03,50,4.10
2007,01,19,03,51,4.10
2007,01,19,03,52,4.10
2007,01,19,03,53,4.10
2007,01,19,03,54,4.20
2007,01,19,03,55,4.20
2007,01,19,03,56,4.20
2007,01,19,03,57,4.20
2007,01,19,03,58,4.20
2007,01,19,03,59,4.20
2007,01,19,04,00,4.20
2007,01,19,04,01,4.20
2007,01,19,04,02,4.20
2007,01,19,04,03,4.20
2007,01,19,04,04,4.20
2007,01,19,04,05,4.20
2007,01,19,04,06,4.20
2007,01,19,04,07,4.20
2007,01,19,04,08,4.20
2007,01,19,04,09,4.20
2007,01,19,04,10,4.20
2007,01,19,04,11,4.20
2007,01,19,04,12,4.20
2007,01,19,04,13,4.20
2007,01,19,04,14,4.20
2007,01,19,04,15,4.20
2007,01,19,04,16,4.20
2007,01,19,04,17,4.20
2007,01,19,04,18,4.20
2007,01,19,04,19,4.20
2007,01,19,04,20,4.20
2007,01,19,04,21,4.20
2007,01,19,04,22,4.30
2007,01,19,04,23,4.30
2007,01,19,04,24,4.30
2007,01,19,04,25,4.30
2007,01,19,04,26,4.30
2007,01,19,04,27,4.30
2007,01,19,04,28,4.30
2007,01,19,04,29,4.30
2007,01,19,04,30,4.30
2007,01,19,04,31,4.30
2007,01,19,04,32,4.30
2007,01,19,04,33,4.30
2007,01,19,04,34,4.30
2007,01,19,04,35,4.30
2007,01,19,04,36,4.30
2007,01,19,04,37,4.40
2007,01,19,04,38,4.40
2007,01,19,04,39,4.40
2007,01,19,04,40,4.40
2007,01,19,04,41,4.40
2007,01,19,04,42,4.40
2007,01,19,04,43,4.40
2007,01,19,04,44,4.40
2007,01,19,04,45,4.40
2007,01,19,04,46,4.40
2007,01,19,04,47,4.40
2007,01,19,04,48,4.40
2007,01,19,04,49,4.40
2007,01,19,04,50,4.40
2007,01,19,04,51,4.40
2007,01,19,04,52,4.40
2007,01,19,04,53,4.40
2007,01,19,04,54,4.40
2007,01,19,04,55,4.40
2007,01,19,04,56,4.50
2007,01,19,04,57,4.50
2007,01,19,04,58,4.60
2007,01,19,04,59,4.60
2007,01,19,05,00,4.60
2007,01,19,05,01,4.60
2007,01,19,05,02,4.60
2007,01,19,05,03,4.60
2007,01,19,05,04,4.60
2007,01,19,05,05,4.60
2007,01,19,05,06,4.60
2007,01,19,05,07,4.60
2007,01,19,05,08,4.50
2007,01,19,05,09,4.50
2007,01,19,05,10,4.50
2007,01,19,05,11,4.50
2007,01,19,05,12,4.50
2007,01,19,05,13,4.50
2007,01,19,05,14,4.50
2007,01,19,05,15,4.50
2007,01,19,05,16,4.50
2007,01,19,05,17,4.50
2007,01,19,05,18,4.40
2007,01,19,05,19,4.40
2007,01,19,05,20,4.40
2007,01,19,05,21,4.40
2007,01,19,05,22,4.40
2007,01,19,05,23,4.40
2007,01,19,05,24,4.40
2007,01,19,05,25,4.40
2007,01,19,05,26,4.40
2007,01,19,05,27,4.40
2007,01,19,05,28,4.40
2007,01,19,05,29,4.40
2007,01,19,05,30,4.40
2007,01,19,05,31,4.40
2007,01,19,05,32,4.40
2007,01,19,05,33,4.40
2007,01,19,05,34,4.40
2007,01,19,05,35,4.30
2007,01,19,05,36,4.40
2007,01,19,05,37,4.40
2007,01,19,05,38,4.40
2007,01,19,05,39,4.40
2007,01,19,05,40,4.40
2007,01,19,05,41,4.40
2007,01,19,05,42,4.40
2007,01,19,05,43,4.40
2007,01,19,05,44,4.40
2007,01,19,05,45,4.40
2007,01,19,05,46,4.40
2007,01,19,05,47,4.40
2007,01,19,05,48,4.40
2007,01,19,05,49,4.40
2007,01,19,05,50,4.40
2007,01,19,05,51,4.40
2007,01,19,05,52,4.40
2007,01,19,05,53,4.40
2007,01,19,05,54,4.40
2007,01,19,05,55,4.40
2007,01,19,05,56,4.40
2007,01,19,05,57,4.40
2007,01,19,05,58,4.50
2007,01,19,05,59,4.50
2007,01,19,06,00,4.50
2007,01,19,06,01,4.50
2007,01,19,06,02,4.50
2007,01,19,06,03,4.50
2007,01,19,06,04,4.60
2007,01,19,06,05,4.60
2007,01,19,06,06,4.60
2007,01,19,06,07,4.60
2007,01,19,06,08,4.60
2007,01,19,06,09,4.60
2007,01,19,06,10,4.60
2007,01,19,06,11,4.50
2007,01,19,06,12,4.50
2007,01,19,06,13,4.40
2007,01,19,06,14,4.40
2007,01,19,06,15,4.40
2007,01,19,06,16,4.40
2007,01,19,06,17,4.40
2007,01,19,06,18,4.40
2007,01,19,06,19,4.40
2007,01,19,06,20,4.40
2007,01,19,06,21,4.40
2007,01,19,06,22,4.40
2007,01,19,06,23,4.40
2007,01,19,06,24,4.40
2007,01,19,06,25,4.30
2007,01,19,06,26,4.30
2007,01,19,06,27,4.30
2007,01,19,06,28,4.30
2007,01,19,06,29,4.30
2007,01,19,06,30,4.30
2007,01,19,06,31,4.30
2007,01,19,06,32,4.30
2007,01,19,06,33,4.30
2007,01,19,06,34,4.20
2007,01,19,06,35,4.20
2007,01,19,06,36,4.20
2007,01,19,06,37,4.20
2007,01,19,06,38,4.20
2007,01,19,06,39,4.20
2007,01,19,06,40,4.20
2007,01,19,06,41,4.20
2007,01,19,06,42,4.20
2007,01,19,06,43,4.20
2007,01,19,06,44,4.20
2007,01,19,06,45,4.20
2007,01,19,06,46,4.20
2007,01,19,06,47,4.20
2007,01,19,06,48,4.20
2007,01,19,06,49,4.20
2007,01,19,06,50,4.20
2007,01,19,06,51,4.20
2007,01,19,06,52,4.20
2007,01,19,06,53,4.20
2007,01,19,06,54,4.20
2007,01,19,06,55,4.20
2007,01,19,06,56,4.20
2007,01,19,06,57,4.20
2007,01,19,06,58,4.20
2007,01,19,06,59,4.20
2007,01,19,07,00,4.20
2007,01,19,07,01,4.20
2007,01,19,07,02,4.20
2007,01,19,07,03,4.20
2007,01,19,07,04,4.20
2007,01,19,07,05,4.20
2007,01,19,07,06,4.20
2007,01,19,07,07,4.20
2007,01,19,07,08,4.20
2007,01,19,07,09,4.20
2007,01,19,07,10,4.20
2007,01,19,07,11,4.20
2007,01,19,07,12,4.20
2007,01,19,07,13,4.20
2007,01,19,07,14,4.20
2007,01,19,07,15,4.20
2007,01,19,07,16,4.20
2007,01,19,07,17,4.20
2007,01,19,07,18,4.20
2007,01,19,07,19,4.20
2007,01,19,07,20,4.20
2007,01,19,07,21,4.20
2007,01,19,07,22,4.20
2007,01,19,07,23,4.20
2007,01,19,07,24,4.20
2007,01,19,07,25,4.20
2007,01,19,07,26,4.20
2007,01,19,07,27,4.10
2007,01,19,07,28,4.10
2007,01,19,07,29,4.10
2007,01,19,07,30,4.10
2007,01,19,07,31,4.10
2007,01,19,07,32,4.10
2007,01,19,07,33,4.10
2007,01,19,07,34,4.20
2007,01,19,07,35,4.20
2007,01,19,07,36,4.20
2007,01,19,07,37,4.20
2007,01,19,07,38,4.20
2007,01,19,07,39,4.30
2007,01,19,07,40,4.30
2007,01,19,07,41,4.30
2007,01,19,07,42,4.30
2007,01,19,07,43,4.30
2007,01,19,07,44,4.30
2007,01,19,07,45,4.30
2007,01,19,07,46,4.30
2007,01,19,07,47,4.30
2007,01,19,07,48,4.20
2007,01,19,07,49,4.20
2007,01,19,07,50,4.20
2007,01,19,07,51,4.20
2007,01,19,07,52,4.20
2007,01,19,07,53,4.20
2007,01,19,07,54,4.20
2007,01,19,07,55,4.20
2007,01,19,07,56,4.30
2007,01,19,07,57,4.30
2007,01,19,07,58,4.30
2007,01,19,07,59,4.30
2007,01,19,08,00,4.30
2007,01,19,08,01,4.30
2007,01,19,08,02,4.30
2007,01,19,08,03,4.30
2007,01,19,08,04,4.30
2007,01,19,08,05,4.30
2007,01,19,08,06,4.30
2007,01,19,08,07,4.30
2007,01,19,08,08,4.30
2007,01,19,08,09,4.20
2007,01,19,08,10,4.20
2007,01,19,08,11,4.20
2007,01,19,08,12,4.20
2007,01,19,08,13,4.20
2007,01,19,08,14,4.20
2007,01,19,08,15,4.20
2007,01,19,08,16,4.20
2007,01,19,08,17,4.20
2007,01,19,08,18,4.20
2007,01,19,08,19,4.20
2007,01,19,08,20,4.20
2007,01,19,08,21,4.20
2007,01,19,08,22,4.20
2007,01,19,08,23,4.20
2007,01,19,08,24,4.20
2007,01,19,08,25,4.20
2007,01,19,08,26,4.20
2007,01,19,08,27,4.20
2007,01,19,08,28,4.20
2007,01,19,08,29,4.20
2007,01,19,08,30,4.20
2007,01,19,08,31,4.20
2007,01,19,08,32,4.20
2007,01,19,08,33,4.20
2007,01,19,08,34,4.20
2007,01,19,08,35,4.20
2007,01,19,08,36,4.20
2007,01,19,08,37,4.30
2007,01,19,08,38,4.30
2007,01,19,08,39,4.30
2007,01,19,08,40,4.30
2007,01,19,08,41,4.30
2007,01,19,08,42,4.30
2007,01,19,08,43,4.30
2007,01,19,08,44,4.40
2007,01,19,08,45,4.40
2007,01,19,08,46,4.40
2007,01,19,08,47,4.40
2007,01,19,08,48,4.40
2007,01,19,08,49,4.40
2007,01,19,08,50,4.50
2007,01,19,08,51,4.50
2007,01,19,08,52,4.50
2007,01,19,08,53,4.50
2007,01,19,08,54,4.50
2007,01,19,08,55,4.50
2007,01,19,08,56,4.50
2007,01,19,08,57,4.60
2007,01,19,08,58,4.60
2007,01,19,08,59,4.60
2007,01,19,09,00,4.60
2007,01,19,09,01,4.60
2007,01,19,09,02,4.60
2007,01,19,09,03,4.60
2007,01,19,09,04,4.60
2007,01,19,09,05,4.60
2007,01,19,09,06,4.60
2007,01,19,09,07,4.60
2007,01,19,09,08,4.60
2007,01,19,09,09,4.60
2007,01,19,09,10,4.60
2007,01,19,09,11,4.60
2007,01,19,09,12,4.60
2007,01,19,09,13,4.60
2007,01,19,09,14,4.60
2007,01,19,09,15,4.60
2007,01,19,09,16,4.60
2007,01,19,09,17,4.60
2007,01,19,09,18,4.60
2007,01,19,09,19,4.60
2007,01,19,09,20,4.70
2007,01,19,09,21,4.70
2007,01,19,09,22,4.70
2007,01,19,09,23,4.70
2007,01,19,09,24,4.60
2007,01,19,09,25,4.70
2007,01,19,09,26,4.70
2007,01,19,09,27,4.80
2007,01,19,09,28,4.80
2007,01,19,09,29,4.80
2007,01,19,09,30,4.80
2007,01,19,09,31,4.80
2007,01,19,09,32,4.80
2007,01,19,09,33,4.80
2007,01,19,09,34,4.90
2007,01,19,09,35,4.90
2007,01,19,09,36,4.90
2007,01,19,09,37,4.90
2007,01,19,09,38,4.90
2007,01,19,09,39,4.90
2007,01,19,09,40,4.90
2007,01,19,09,41,4.90
2007,01,19,09,42,4.90
2007,01,19,09,43,4.90
2007,01,19,09,44,4.80
2007,01,19,09,45,4.80
2007,01,19,09,46,4.80
2007,01,19,09,47,4.70
2007,01,19,09,48,4.70
2007,01,19,09,49,4.70
2007,01,19,09,50,4.70
2007,01,19,09,51,4.70
2007,01,19,09,52,4.70
2007,01,19,09,53,4.70
2007,01,19,09,54,4.70
2007,01,19,09,55,4.70
2007,01,19,09,56,4.70
2007,01,19,09,57,4.80
2007,01,19,09,58,4.80
2007,01,19,09,59,4.80
2007,01,19,10,00,4.80
2007,01,19,10,01,4.80
2007,01,19,10,02,4.80
2007,01,19,10,03,4.80
2007,01,19,10,04,4.80
2007,01,19,10,05,4.80
2007,01,19,10,06,4.80
2007,01,19,10,07,4.80
2007,01,19,10,08,4.80
2007,01,19,10,09,4.80
2007,01,19,10,10,4.80
2007,01,19,10,11,4.80
2007,01,19,10,12,4.80
2007,01,19,10,13,4.80
2007,01,19,10,14,4.80
2007,01,19,10,15,4.80
2007,01,19,10,16,4.80
2007,01,19,10,17,4.80
2007,01,19,10,18,4.80
2007,01,19,10,19,4.80
2007,01,19,10,20,4.80
2007,01,19,10,21,4.80
2007,01,19,10,22,4.80
2007,01,19,10,23,4.80
2007,01,19,10,24,4.80
2007,01,19,10,25,4.80
2007,01,19,10,26,4.80
2007,01,19,10,27,4.80
2007,01,19,10,28,4.80
2007,01,19,10,29,4.90
2007,01,19,10,30,4.90
2007,01,19,10,31,4.90
2007,01,19,10,32,4.90
2007,01,19,10,33,4.90
2007,01,19,10,34,4.80
2007,01,19,10,35,4.80
2007,01,19,10,36,4.70
2007,01,19,10,37,4.80
2007,01,19,10,38,4.80
2007,01,19,10,39,4.80
2007,01,19,10,40,4.80
2007,01,19,10,41,4.80
2007,01,19,10,42,4.80
2007,01,19,10,43,4.80
2007,01,19,10,44,4.90
2007,01,19,10,45,4.90
2007,01,19,10,46,4.90
2007,01,19,10,47,4.90
2007,01,19,10,48,4.90
2007,01,19,10,49,4.90
2007,01,19,10,50,4.90
2007,01,19,10,51,4.90
2007,01,19,10,52,4.90
2007,01,19,10,53,4.90
2007,01,19,10,54,4.90
2007,01,19,10,55,4.90
2007,01,19,10,56,4.90
2007,01,19,10,57,4.90
2007,01,19,10,58,4.90
2007,01,19,10,59,4.90
2007,01,19,11,00,4.90
2007,01,19,11,01,4.90
2007,01,19,11,02,5.00
2007,01,19,11,03,5.10
2007,01,19,11,04,5.10
2007,01,19,11,05,5.10
2007,01,19,11,06,5.10
2007,01,19,11,07,5.10
2007,01,19,11,08,5.10
2007,01,19,11,09,5.10
2007,01,19,11,10,5.10
2007,01,19,11,11,5.10
2007,01,19,11,12,5.10
2007,01,19,11,13,5.10
2007,01,19,11,14,5.20
2007,01,19,11,15,5.10
2007,01,19,11,16,5.20
2007,01,19,11,17,5.20
2007,01,19,11,18,5.20
2007,01,19,11,19,5.20
2007,01,19,11,20,5.20
2007,01,19,11,21,5.20
2007,01,19,11,22,5.20
2007,01,19,11,23,5.20
2007,01,19,11,24,5.30
2007,01,19,11,25,5.30
2007,01,19,11,26,5.30
2007,01,19,11,27,5.30
2007,01,19,11,28,5.30
2007,01,19,11,29,5.30
2007,01,19,11,30,5.30
2007,01,19,11,31,5.30
2007,01,19,11,32,5.30
2007,01,19,11,33,5.30
2007,01,19,11,34,5.30
2007,01,19,11,35,5.30
2007,01,19,11,36,5.40
2007,01,19,11,37,5.40
2007,01,19,11,38,5.40
2007,01,19,11,39,5.40
2007,01,19,11,40,5.50
2007,01,19,11,41,5.50
2007,01,19,11,42,5.50
2007,01,19,11,43,5.50
2007,01,19,11,44,5.60
2007,01,19,11,45,5.60
2007,01,19,11,46,5.60
2007,01,19,11,47,5.60
2007,01,19,11,48,5.60
2007,01,19,11,49,5.60
2007,01,19,11,50,5.60
2007,01,19,11,51,5.70
2007,01,19,11,52,5.70
2007,01,19,11,53,5.70
2007,01,19,11,54,5.70
2007,01,19,11,55,5.70
2007,01,19,11,56,5.70
2007,01,19,11,57,5.80
2007,01,19,11,58,5.80
2007,01,19,11,59,5.80
2007,01,19,12,00,5.80
2007,01,19,12,01,5.90
2007,01,19,12,02,5.90
2007,01,19,12,03,5.90
2007,01,19,12,04,5.90
2007,01,19,12,05,6.00
2007,01,19,12,06,6.00
2007,01,19,12,07,6.00
2007,01,19,12,08,6.00
2007,01,19,12,09,6.10
2007,01,19,12,10,6.10
2007,01,19,12,11,6.10
2007,01,19,12,12,6.10
2007,01,19,12,13,6.20
2007,01,19,12,14,6.20
2007,01,19,12,15,6.20
2007,01,19,12,16,6.20
2007,01,19,12,17,6.20
2007,01,19,12,18,6.20
2007,01,19,12,19,6.20
2007,01,19,12,20,6.20
2007,01,19,12,21,6.20
2007,01,19,12,22,6.20
2007,01,19,12,23,6.20
2007,01,19,12,24,6.20
2007,01,19,12,25,6.20
2007,01,19,12,26,6.20
2007,01,19,12,27,6.20
2007,01,19,12,28,6.20
2007,01,19,12,29,6.20
2007,01,19,12,30,6.20
2007,01,19,12,31,6.20
2007,01,19,12,32,6.20
2007,01,19,12,33,6.20
2007,01,19,12,34,6.20
2007,01,19,12,35,6.20
2007,01,19,12,36,6.20
2007,01,19,12,37,6.20
2007,01,19,12,38,6.20
2007,01,19,12,39,6.20
2007,01,19,12,40,6.20
2007,01,19,12,41,6.20
2007,01,19,12,42,6.20
2007,01,19,12,43,6.20
2007,01,19,12,44,6.20
2007,01,19,12,45,6.20
2007,01,19,12,46,6.30
2007,01,19,12,47,6.30
2007,01,19,12,48,6.30
2007,01,19,12,49,6.30
2007,01,19,12,50,6.40
2007,01,19,12,51,6.40
2007,01,19,12,52,6.40
2007,01,19,12,53,6.40
2007,01,19,12,54,6.40
2007,01,19,12,55,6.40
2007,01,19,12,56,6.40
2007,01,19,12,57,6.40
2007,01,19,12,58,6.50
2007,01,19,12,59,6.60
2007,01,19,13,00,6.60
2007,01,19,13,01,6.60
2007,01,19,13,02,6.60
2007,01,19,13,03,6.60
2007,01,19,13,04,6.60
2007,01,19,13,05,6.60
2007,01,19,13,06,6.60
2007,01,19,13,07,6.60
2007,01,19,13,08,6.60
2007,01,19,13,09,6.60
2007,01,19,13,10,6.60
2007,01,19,13,11,6.60
2007,01,19,13,12,6.70
2007,01,19,13,13,6.70
2007,01,19,13,14,6.80
2007,01,19,13,15,6.80
2007,01,19,13,16,6.80
2007,01,19,13,17,6.80
2007,01,19,13,18,6.80
2007,01,19,13,19,6.80
2007,01,19,13,20,6.80
2007,01,19,13,21,6.90
2007,01,19,13,22,6.80
2007,01,19,13,23,6.80
2007,01,19,13,24,6.80
2007,01,19,13,25,6.80
2007,01,19,13,26,6.80
2007,01,19,13,27,6.80
2007,01,19,13,28,6.80
2007,01,19,13,29,6.90
2007,01,19,13,30,6.90
2007,01,19,13,31,6.90
2007,01,19,13,32,6.90
2007,01,19,13,33,7.10
2007,01,19,13,34,7.20
2007,01,19,13,35,7.20
2007,01,19,13,36,7.30
2007,01,19,13,37,7.30
2007,01,19,13,38,7.30
2007,01,19,13,39,7.30
2007,01,19,13,40,7.30
2007,01,19,13,41,7.30
2007,01,19,13,42,7.30
2007,01,19,13,43,7.30
2007,01,19,13,44,7.30
2007,01,19,13,45,7.30
2007,01,19,13,46,7.30
2007,01,19,13,47,7.30
2007,01,19,13,48,7.40
2007,01,19,13,49,7.40
2007,01,19,13,50,7.40
2007,01,19,13,51,7.50
2007,01,19,13,52,7.50
2007,01,19,13,53,7.50
2007,01,19,13,54,7.60
2007,01,19,13,55,7.60
2007,01,19,13,56,7.60
2007,01,19,13,57,7.60
2007,01,19,13,58,7.60
2007,01,19,13,59,7.60
2007,01,19,14,00,7.70
2007,01,19,14,01,7.70
2007,01,19,14,02,7.70
2007,01,19,14,03,7.70
2007,01,19,14,04,7.70
2007,01,19,14,05,7.70
2007,01,19,14,06,7.80
2007,01,19,14,07,7.70
2007,01,19,14,08,7.70
2007,01,19,14,09,7.80
2007,01,19,14,10,7.80
2007,01,19,14,11,7.90
2007,01,19,14,12,8.00
2007,01,19,14,13,8.10
2007,01,19,14,14,8.20
2007,01,19,14,15,8.20
2007,01,19,14,16,8.20
2007,01,19,14,17,8.20
2007,01,19,14,18,8.20
2007,01,19,14,19,8.20
2007,01,19,14,20,8.10
2007,01,19,14,21,8.10
2007,01,19,14,22,8.00
2007,01,19,14,23,8.00
2007,01,19,14,24,8.00
2007,01,19,14,25,8.00
2007,01,19,14,26,8.00
2007,01,19,14,27,8.00
2007,01,19,14,28,8.00
2007,01,19,14,29,8.00
2007,01,19,14,30,7.90
2007,01,19,14,31,7.90
2007,01,19,14,32,7.90
2007,01,19,14,33,7.90
2007,01,19,14,34,7.90
2007,01,19,14,35,7.90
2007,01,19,14,36,7.90
2007,01,19,14,37,7.90
2007,01,19,14,38,7.90
2007,01,19,14,39,7.90
2007,01,19,14,40,7.90
2007,01,19,14,41,7.90
2007,01,19,14,42,7.90
2007,01,19,14,43,7.90
2007,01,19,14,44,7.90
2007,01,19,14,45,7.90
2007,01,19,14,46,7.90
2007,01,19,17,35,6.60
2007,01,19,17,36,6.60
2007,01,19,17,37,6.60
2007,01,19,17,38,6.60
2007,01,19,17,39,6.60
2007,01,19,17,40,6.60
2007,01,19,17,41,6.60
2007,01,19,17,42,6.60
2007,01,19,17,43,6.60
2007,01,19,17,44,6.60
2007,01,19,17,45,6.60
2007,01,19,17,46,6.60
2007,01,19,17,47,6.60
2007,01,19,17,48,6.60
2007,01,19,17,49,6.60
2007,01,19,17,50,6.60
2007,01,19,19,31,5.70
2007,01,19,19,32,5.70
2007,01,19,19,33,5.70
2007,01,19,19,34,5.70
2007,01,19,19,35,5.70
2007,01,19,19,36,5.60
2007,01,19,19,37,5.60
2007,01,19,19,38,5.60
2007,01,19,19,39,5.60
2007,01,19,19,40,5.60
2007,01,19,19,41,5.60
2007,01,19,19,42,5.60
2007,01,19,19,43,5.60
2007,01,19,19,44,5.50
2007,01,19,19,45,5.50
2007,01,19,19,46,5.50
2007,01,19,19,47,5.50
2007,01,19,19,48,5.50
2007,01,19,19,49,5.40
2007,01,19,19,50,5.40
2007,01,19,19,51,5.40
2007,01,19,19,52,5.40
2007,01,19,19,53,5.40
2007,01,19,19,54,5.30
2007,01,19,19,55,5.30
2007,01,19,19,56,5.30
2007,01,19,19,57,5.30
2007,01,19,19,58,5.30
2007,01,19,19,59,5.30
2007,01,19,20,00,5.30
2007,01,19,20,01,5.30
2007,01,19,20,02,5.30
2007,01,19,20,03,5.30
2007,01,19,20,04,5.30
2007,01,19,20,05,5.30
2007,01,19,20,06,5.30
2007,01,19,20,07,5.30
2007,01,19,20,08,5.30
2007,01,19,20,09,5.20
2007,01,19,20,10,5.20
2007,01,19,20,11,5.20
2007,01,19,20,12,5.20
2007,01,19,20,13,5.20
2007,01,19,20,14,5.20
2007,01,19,20,15,5.20
2007,01,19,20,16,5.20
2007,01,19,20,17,5.20
2007,01,19,20,18,5.20
2007,01,19,20,19,5.20
2007,01,19,20,20,5.30
2007,01,19,20,21,5.30
2007,01,19,20,22,5.30
2007,01,19,20,23,5.30
2007,01,19,20,24,5.30
2007,01,19,20,25,5.30
2007,01,19,20,26,5.30
2007,01,19,20,27,5.30
2007,01,19,20,28,5.30
2007,01,19,20,29,5.30
2007,01,19,20,30,5.30
2007,01,19,20,31,5.20
2007,01,19,20,32,5.20
2007,01,19,20,33,5.10
2007,01,19,20,34,5.10
2007,01,19,20,35,5.10
2007,01,19,20,36,5.10
2007,01,19,20,37,5.10
2007,01,19,20,38,5.10
2007,01,19,20,39,5.00
2007,01,19,20,40,4.90
2007,01,19,20,41,4.90
2007,01,19,20,42,4.90
2007,01,19,20,43,4.90
2007,01,19,20,44,4.90
2007,01,19,20,45,4.80
2007,01,19,20,46,4.80
2007,01,19,20,47,4.80
2007,01,19,20,48,4.80
2007,01,19,20,49,4.80
2007,01,19,20,50,4.70
2007,01,19,20,51,4.70
2007,01,19,20,52,4.70
2007,01,19,20,53,4.70
2007,01,19,20,54,4.70
2007,01,19,20,55,4.70
2007,01,19,20,56,4.70
2007,01,19,20,57,4.70
2007,01,19,20,58,4.70
2007,01,19,20,59,4.60
2007,01,19,21,00,4.60
2007,01,19,21,01,4.60
2007,01,19,21,02,4.60
2007,01,19,21,03,4.60
2007,01,19,21,04,4.60
2007,01,19,21,05,4.60
2007,01,19,21,06,4.60
2007,01,19,21,07,4.60
2007,01,19,21,08,4.60
2007,01,19,21,09,4.60
2007,01,19,21,10,4.60
2007,01,19,21,11,4.60
2007,01,19,21,12,4.60
2007,01,19,21,13,4.60
2007,01,19,21,14,4.70
2007,01,19,21,15,4.70
2007,01,19,21,16,4.70
2007,01,19,21,17,4.70
2007,01,19,21,18,4.70
2007,01,19,21,19,4.80
2007,01,19,21,20,4.80
2007,01,19,21,21,4.80
2007,01,19,21,22,4.80
2007,01,19,21,23,4.80
2007,01,19,21,24,4.80
2007,01,19,21,25,4.90
2007,01,19,21,26,4.90
2007,01,19,21,27,4.90
2007,01,19,21,28,4.90
2007,01,19,21,29,4.90
2007,01,19,21,30,4.90
2007,01,19,21,31,4.90
2007,01,19,21,32,4.90
2007,01,19,21,33,4.90
2007,01,19,21,34,4.90
2007,01,19,21,35,5.00
2007,01,19,21,36,5.10
2007,01,19,21,37,5.10
2007,01,19,21,38,5.10
2007,01,19,21,39,5.10
2007,01,19,21,40,5.10
2007,01,19,21,41,5.10
2007,01,19,21,42,5.10
2007,01,19,21,43,5.10
2007,01,19,21,44,5.10
2007,01,19,21,45,5.10
2007,01,19,21,46,5.10
2007,01,19,21,47,5.10
2007,01,19,21,48,5.10
2007,01,19,21,49,5.10
2007,01,19,21,50,4.90
2007,01,19,21,51,4.90
2007,01,19,21,52,4.90
2007,01,19,21,53,4.90
2007,01,19,21,54,5.00
2007,01,19,21,55,5.10
2007,01,19,21,56,5.10
2007,01,19,21,57,5.10
2007,01,19,21,58,5.10
2007,01,19,21,59,5.10
2007,01,19,22,00,5.10
2007,01,19,22,01,5.10
2007,01,19,22,02,5.10
2007,01,19,22,03,5.10
2007,01,19,22,04,5.10
2007,01,19,22,05,5.10
2007,01,19,22,06,5.10
2007,01,19,22,07,5.10
2007,01,19,22,08,5.10
2007,01,19,22,09,5.10
2007,01,19,22,10,5.10
2007,01,19,22,11,5.20
2007,01,19,22,12,5.20
2007,01,19,22,13,5.20
2007,01,19,22,14,5.20
2007,01,19,22,15,5.20
2007,01,19,22,16,5.20
2007,01,19,22,17,5.20
2007,01,19,22,18,5.20
2007,01,19,22,19,5.20
2007,01,19,22,20,5.30
2007,01,19,22,21,5.30
2007,01,19,22,22,5.30
2007,01,19,22,23,5.30
2007,01,19,22,24,5.30
2007,01,19,22,25,5.30
2007,01,19,22,26,5.30
2007,01,19,22,27,5.20
2007,01,19,22,28,5.20
2007,01,19,22,29,5.20
2007,01,19,22,30,5.20
2007,01,19,22,31,5.20
2007,01,19,22,32,5.20
2007,01,19,22,33,5.20
2007,01,19,22,34,5.20